TimeEST,TemperatureF,Dew PointF,Humidity,Sea Level PressureIn,VisibilityMPH,Wind Direction,Wind SpeedMPH,Gust SpeedMPH,PrecipitationIn,Events,Conditions,WindDirDegrees,DateUTC
12:10 AM,30.2,30.2,100,30.26,5.0,Calm,Calm,-,N/A,Snow,Light Snow,0,2012-11-22 05:10:00
12:30 AM,28.4,28.4,100,30.26,5.0,Calm,Calm,-,N/A,Snow,Light Snow,0,2012-11-22 05:30:00
12:50 AM,28.4,28.4,100,30.26,7.0,Calm,Calm,-,N/A,Snow,Light Snow,0,2012-11-22 05:50:00
1:15 AM,28.4,28.4,100,30.26,7.0,Calm,Calm,-,N/A,Snow,Light Snow,0,2012-11-22 06:15:00
1:35 AM,26.6,26.6,100,30.27,10.0,Calm,Calm,-,N/A,,Clear,0,2012-11-22 06:35:00
1:55 AM,26.6,26.6,100,30.27,5.0,Calm,Calm,-,N/A,Snow,Light Snow,0,2012-11-22 06:55:00
2:15 AM,28.4,28.4,100,30.27,7.0,Calm,Calm,-,N/A,,Clear,0,2012-11-22 07:15:00
2:40 AM,28.4,28.4,100,30.27,5.0,Calm,Calm,-,N/A,,Clear,0,2012-11-22 07:40:00
3:00 AM,28.4,28.4,100,30.26,7.0,Calm,Calm,-,N/A,,Clear,0,2012-11-22 08:00:00
3:20 AM,26.6,26.6,100,30.27,7.0,Calm,Calm,-,N/A,,Clear,0,2012-11-22 08:20:00
3:40 AM,26.6,26.6,100,30.27,7.0,Calm,Calm,-,N/A,,Clear,0,2012-11-22 08:40:00
4:05 AM,26.6,26.6,100,30.27,3.0,Calm,Calm,-,N/A,,Clear,0,2012-11-22 09:05:00
4:25 AM,26.6,26.6,100,30.27,5.0,Calm,Calm,-,N/A,,Clear,0,2012-11-22 09:25:00
4:45 AM,28.4,28.4,100,30.27,5.0,Calm,Calm,-,N/A,,Clear,0,2012-11-22 09:45:00
5:10 AM,26.6,26.6,100,30.28,5.0,Calm,Calm,-,N/A,,Clear,0,2012-11-22 10:10:00
5:30 AM,24.8,24.8,100,30.28,5.0,Calm,Calm,-,N/A,,Clear,0,2012-11-22 10:30:00
5:50 AM,24.8,24.8,100,30.28,7.0,Calm,Calm,-,N/A,,Clear,0,2012-11-22 10:50:00
6:50 AM,24.8,24.8,100,30.29,7.0,Calm,Calm,-,N/A,,Clear,0,2012-11-22 11:50:00
7:50 AM,26.6,26.6,100,30.30,10.0,Calm,Calm,-,N/A,,Clear,0,2012-11-22 12:50:00
8:55 AM,37.4,33.8,87,30.31,10.0,Calm,Calm,-,N/A,,Clear,0,2012-11-22 13:55:00
9:50 AM,46.4,37.4,71,30.31,10.0,Calm,Calm,-,N/A,,Clear,0,2012-11-22 14:50:00
10:50 AM,53.6,39.2,58,30.30,10.0,Calm,Calm,-,N/A,,Clear,0,2012-11-22 15:50:00
11:50 AM,60.8,39.2,45,30.27,10.0,Calm,Calm,-,N/A,,Clear,0,2012-11-22 16:50:00
12:50 PM,62.6,37.4,39,30.25,10.0,Calm,Calm,-,N/A,,Clear,0,2012-11-22 17:50:00
1:55 PM,64.4,37.4,37,30.23,10.0,Calm,Calm,-,N/A,,Clear,0,2012-11-22 18:55:00
2:50 PM,62.6,37.4,39,30.22,10.0,Calm,Calm,-,N/A,,Clear,0,2012-11-22 19:50:00
4:47 PM,51.8,32.0,47,30.21,10.0,Calm,Calm,-,N/A,,Clear,0,2012-11-22 21:47:00
5:45 PM,41.0,33.8,76,30.21,10.0,Calm,Calm,-,N/A,,Clear,0,2012-11-22 22:45:00
6:52 PM,35.6,32.0,87,30.20,10.0,Calm,Calm,-,N/A,,Clear,0,2012-11-22 23:52:00
7:59 PM,33.8,33.8,100,30.20,10.0,Calm,Calm,-,N/A,,Clear,0,2012-11-23 00:59:00
8:00 PM,33.8,33.8,100,30.20,10.0,Calm,Calm,-,N/A,,Clear,0,2012-11-23 01:00:00
8:20 PM,32.0,32.0,100,30.20,7.0,Calm,Calm,-,N/A,Snow,Light Snow,0,2012-11-23 01:20:00
8:40 PM,32.0,32.0,100,30.20,7.0,Calm,Calm,-,N/A,Snow,Light Snow,0,2012-11-23 01:40:00
9:05 PM,32.0,32.0,100,30.19,7.0,Calm,Calm,-,N/A,Snow,Light Snow,0,2012-11-23 02:05:00
9:25 PM,32.0,32.0,100,30.19,7.0,Calm,Calm,-,N/A,,Clear,0,2012-11-23 02:25:00
9:45 PM,30.2,30.2,100,30.19,7.0,Calm,Calm,-,N/A,Snow,Light Snow,0,2012-11-23 02:45:00
10:05 PM,30.2,30.2,100,30.19,10.0,Calm,Calm,-,N/A,,Clear,0,2012-11-23 03:05:00
10:30 PM,30.2,30.2,100,30.19,7.0,Calm,Calm,-,N/A,,Clear,0,2012-11-23 03:30:00
10:50 PM,32.0,32.0,100,30.18,7.0,Calm,Calm,-,N/A,,Clear,0,2012-11-23 03:50:00
11:10 PM,30.2,30.2,100,30.18,5.0,Calm,Calm,-,N/A,,Clear,0,2012-11-23 04:10:00
11:30 PM,30.2,30.2,100,30.18,5.0,Calm,Calm,-,N/A,,Clear,0,2012-11-23 04:30:00
11:55 PM,30.2,30.2,100,30.17,7.0,Calm,Calm,-,N/A,Snow,Light Snow,0,2012-11-23 04:55:00